Find Starlink 30527

NORAD ID: 58007 Int'l Des: 2023-153 Owner: SPXS Country: US Constellation: starlink operational
LEOCIRCULAR

实时位置

正在加载3D地球...

关于 Starlink 30527

正在加载描述...

即将过境

Passes for default location (London). Set your location on the main map for personalized predictions.

高度历史

Loading altitude history...

两行轨道根数

1 58007U 23153S 26123.64035578 .00003791 00000-0 14723-3 0 9996
2 58007 42.9989 248.0462 0000611 227.4400 132.6401 15.27578883145861
Epoch: May 3, 2026 • Age: 5 hours

当前状态

高度 482.4 km
速度 7.63 km/s
星下点 10.82°N, 94.76°E
发射日期 Oct 5, 2023
运行时间 2.5 years
类型 internet

技术详情

分类 Payload
质量 730.00 kg
干质量 700.00 kg
总质量 730.00 kg
长度 0.30 m
直径 4.10 m
跨度 29.00 m
形状 Box + pan
制造商 SPXS
平台类型 Starlink V2M
阶段状态 In Orbit
所有者/国家 SPXS/US

Most Searched